Wind_Speed
13 13 15 17 18 19 20 21 20 20 20 21 21 22 23 24 24 23 23 22 22 22 22 21 19 19 20 20 20 19 20 19 19 19 19 19 23 24 24 26 26 27 30
15 16 18 20 21 22 23 24 24 25 25 25 26 25 26 27 27 29 29 27 27 27 26 25 24 23 23 22 22 22 21 21 22 22 22 24 24 25 27 27 28 28 29
18 19 21 23 24 26 27 28 29 30 30 30 29 30 30 30 30 31 32 32 32 31 30 30 30 28 27 26 26 26 26 25 24 25 25 25 26 28 31 32 32 31 34
16 17 20 22 23 25 27 29 30 31 32 33 34 33 34 33 34 33 34 34 34 34 35 34 32 32 31 31 30 30 29 29 28 27 28 28 29 29 32 36 38 38 38
15 16 18 22 23 24 27 29 29 31 32 32 33 34 32 32 32 34 36 36 36 36 36 37 37 36 34 34 34 33 33 32 32 31 31 30 30 32 33 35 36 40 40
18 18 19 20 23 25 26 28 28 28 30 30 29 31 31 29 30 31 33 34 35 36 38 38 37 37 37 35 35 35 35 34 35 35 35 35 34 35 36 37 39 40 42
21 22 23 26 26 26 27 29 30 31 30 30 30 29 30 32 31 32 30 30 31 33 36 37 36 36 37 37 37 37 36 36 35 36 37 38 38 38 38 39 40 41 43
24 26 27 29 32 31 30 31 31 32 34 32 32 31 33 32 32 33 32 30 31 31 32 33 35 36 37 36 36 37 37 37 36 36 38 39 40 40 40 39 39 40 43
23 25 28 31 32 31 30 32 33 34 35 35 35 35 35 36 36 33 32 32 31 32 31 30 32 33 35 37 37 37 38 38 37 37 36 38 41 42 42 40 39 38 41
27 28 27 27 29 30 32 33 34 34 36 35 35 35 36 37 37 34 33 32 31 31 32 32 32 33 35 37 38 37 39 39 39 38 36 36 40 42 43 42 40 39 41
32 34 33 30 29 33 33 33 33 35 37 36 35 35 34 35 37 35 35 35 32 32 33 33 33 34 35 36 35 36 37 39 40 39 38 37 37 42 43 41 41 40 40
35 36 36 37 34 29 30 30 32 34 36 37 36 34 35 36 35 36 37 37 37 33 33 34 34 34 34 35 34 34 36 37 38 39 39 39 40 41 42 41 41 40 39
36 36 37 36 38 35 31 29 31 33 36 37 36 36 36 35 34 35 36 36 37 38 38 37 37 37 37 36 37 35 36 36 35 37 39 38 38 39 41 39 41 39 38
39 39 40 39 38 36 34 31 31 32 35 38 37 36 36 37 35 34 36 37 38 40 39 39 39 39 38 38 39 39 37 37 36 35 36 39 40 41 44 39 37 38 36
42 42 41 41 41 37 35 35 34 34 34 37 39 39 38 38 36 36 35 36 38 39 40 40 41 41 40 41 41 41 40 39 37 36 37 38 38 38 39 39 35 36 35
44 45 43 42 42 42 40 38 36 36 36 36 39 41 40 38 42 42 38 38 38 39 39 41 42 43 42 43 43 42 42 40 38 37 36 39 37 37 37 36 34 33 37
47 46 45 43 44 43 42 42 39 38 38 38 38 40 41 41 40 40 39 38 36 36 38 40 42 43 43 45 46 45 42 40 39 39 38 36 36 36 35 34 34 32 34
49 49 46 46 46 45 42 41 42 40 39 39 39 40 41 42 42 41 40 40 38 39 41 40 40 41 43 45 49 49 46 44 41 40 39 38 37 37 34 33 33 35 33
53 52 49 48 47 45 42 41 41 40 39 39 40 41 42 43 45 45 43 43 42 41 43 44 42 40 42 46 47 50 50 48 45 44 41 39 39 39 35 31 30 31 33
58 56 51 49 48 47 45 42 39 37 37 36 39 40 42 43 43 44 44 44 45 48 49 48 47 47 47 48 49 50 50 48 49 47 44 44 40 39 37 30 30 28 30
62 58 53 49 49 48 46 40 38 35 37 35 38 39 42 44 45 48 49 50 52 53 55 55 54 56 55 50 50 50 53 50 49 48 46 47 45 41 36 32 30 27 27
64 58 53 52 52 48 45 40 37 38 37 38 40 43 43 45 49 52 55 57 59 61 62 63 62 58 56 54 54 54 54 54 52 48 46 47 46 43 38 33 34 27 27
60 55 57 57 53 47 44 42 40 42 45 47 47 48 49 50 51 51 55 59 64 66 66 67 66 66 63 62 58 53 49 54 55 51 47 46 44 43 39 33 35 29 26
62 58 60 59 52 46 45 45 46 49 50 52 53 53 54 55 55 53 56 58 58 61 67 68 64 64 64 61 61 53 49 49 55 56 49 45 42 38 40 34 36 31 28
59 59 56 53 52 50 51 52 52 56 58 61 57 57 60 60 58 58 63 66 66 66 70 69 68 65 62 59 59 52 48 49 50 58 55 41 39 35 39 34 35 32 27
58 55 56 54 54 55 55 57 61 63 64 64 61 63 64 63 63 63 64 70 71 71 73 67 65 64 59 59 58 54 49 47 50 54 53 33 34 35 39 36 35 33 29
Wind_Direction
319 325 317 315 316 315 313 314 314 315 320 319 320 324 325 326 329 327 325 322 320 318 318 316 315 318 322 326 329 331 334 335 334 333 329 328 325 327 325 325 322 319 323
311 308 305 306 305 306 305 305 307 308 309 309 311 312 313 315 316 319 319 321 319 317 314 311 310 309 311 314 316 319 322 324 326 328 328 325 323 320 317 320 328 328 330
313 310 305 304 305 304 303 303 304 303 303 303 304 303 304 305 307 309 309 310 313 314 314 314 311 308 306 306 309 311 314 317 319 321 323 325 323 323 320 319 320 325 327
318 315 311 309 308 307 305 304 304 303 302 302 301 301 302 301 300 299 297 298 300 303 306 307 308 308 306 304 302 303 305 308 310 313 316 320 321 323 325 323 323 325 325
330 324 314 310 309 307 309 308 305 306 307 306 305 307 307 306 304 300 297 295 295 294 296 297 301 302 303 303 302 301 299 300 301 304 306 309 313 316 319 322 325 322 321
333 330 318 314 316 315 313 310 309 308 308 308 308 310 313 314 311 307 302 298 296 294 292 291 293 295 296 298 298 298 298 298 298 298 300 302 305 308 313 317 321 323 322
331 327 322 319 319 317 316 316 310 305 302 305 307 309 312 319 317 313 307 302 300 296 294 295 294 293 294 295 296 295 296 296 296 296 297 298 300 303 307 311 317 320 320
335 328 322 317 318 323 320 317 313 312 306 302 303 306 310 313 317 314 313 308 305 303 300 300 299 294 293 292 291 292 293 294 295 297 298 298 298 299 302 306 310 316 318
340 334 326 322 326 327 324 319 317 315 314 310 300 300 304 309 314 312 309 308 310 306 303 299 298 296 293 292 291 291 292 293 294 295 297 300 301 301 301 303 307 312 314
348 345 339 333 329 328 324 319 317 313 312 313 309 304 304 308 312 309 304 303 306 305 305 303 300 300 300 298 297 294 293 294 294 295 296 302 304 304 301 303 304 309 311
345 345 342 334 331 326 322 319 317 314 311 313 312 310 309 312 312 308 305 303 300 302 304 304 303 301 301 302 302 299 297 298 298 297 296 297 299 300 301 301 303 307 309
341 340 341 338 335 330 324 318 314 311 312 314 314 311 311 313 314 311 308 305 299 296 298 299 300 301 302 303 304 304 302 301 300 297 295 297 304 303 301 302 303 306 308
336 335 336 337 335 332 325 319 313 311 311 313 315 313 311 311 310 308 307 304 298 296 296 300 302 301 301 303 304 303 303 302 302 303 300 297 302 306 306 304 305 306 307
332 333 332 332 332 330 325 322 316 312 309 309 312 311 309 309 309 310 310 305 302 300 297 298 298 299 300 299 299 303 304 304 302 300 298 298 299 301 304 301 303 306 306
328 330 329 329 328 326 326 324 318 313 309 307 309 312 312 309 309 310 309 306 302 301 300 297 296 297 297 298 298 299 301 305 305 302 301 300 301 301 311 308 304 305 306
327 328 328 328 327 325 323 323 320 314 310 307 308 311 312 309 312 308 306 307 304 302 299 298 299 298 296 296 295 296 298 301 304 303 303 302 304 303 310 313 311 305 307
325 327 326 327 326 323 321 319 317 313 311 309 308 310 311 311 313 311 308 307 307 306 304 300 297 298 297 294 293 292 293 297 299 300 301 302 303 304 306 310 315 316 308
324 325 323 324 324 323 320 318 314 311 308 308 307 306 306 307 306 305 304 304 305 302 302 301 298 296 295 294 295 294 293 293 294 295 298 300 299 300 305 306 311 311 312
321 323 321 321 323 323 321 317 312 311 308 308 308 307 307 305 305 305 302 299 300 303 306 305 302 300 298 291 290 290 293 294 294 294 294 294 296 298 301 308 304 303 309
319 321 321 321 321 321 318 312 309 308 307 310 310 310 307 305 303 302 299 297 295 296 297 298 300 299 295 292 290 288 285 291 293 292 291 290 288 293 298 300 304 304 301
317 317 315 317 318 317 312 307 306 306 307 310 307 307 306 304 302 300 297 295 295 294 294 295 297 297 299 290 285 285 287 285 286 292 289 287 288 289 292 295 295 305 300
314 311 310 313 314 311 306 302 304 301 306 309 306 303 301 299 298 300 297 296 294 292 292 294 295 296 298 296 293 286 282 280 281 281 285 283 286 287 287 287 290 298 298
310 308 308 309 308 305 301 299 297 296 297 300 299 299 299 298 297 298 300 299 296 294 293 293 294 296 297 295 293 289 290 285 278 275 275 277 276 281 285 280 283 290 292
304 303 304 306 305 301 297 296 296 295 295 296 295 295 296 296 296 296 298 299 297 295 294 292 292 292 289 293 292 289 290 289 291 276 268 274 272 275 277 275 277 283 287
303 302 301 300 298 298 298 295 292 293 294 294 291 294 299 298 297 295 297 296 295 295 294 294 290 286 288 292 290 287 288 286 287 284 271 266 272 268 271 271 273 278 280
298 297 300 299 298 299 299 296 293 291 290 290 288 290 294 292 292 290 293 294 293 293 296 297 295 294 296 295 296 294 290 284 285 285 272 263 265 263 264 265 268 273 273
Height
5896 5895 5893 5891 5890 5888 5885 5884 5881 5879 5878 5875 5873 5871 5868 5864 5862 5859 5856 5853 5850 5848 5846 5843 5840 5838 5835 5832 5829 5826 5822 5819 5815 5812 5809 5806 5800 5797 5794 5790 5787 5783 5778
5894 5893 5891 5889 5887 5885 5883 5880 5878 5876 5874 5871 5869 5867 5864 5862 5859 5856 5853 5851 5848 5845 5842 5840 5837 5834 5832 5828 5825 5822 5819 5816 5812 5808 5805 5800 5797 5792 5788 5784 5779 5776 5772
5891 5890 5888 5885 5883 5881 5879 5876 5874 5871 5869 5866 5864 5861 5859 5857 5855 5852 5849 5846 5843 5841 5838 5835 5832 5829 5827 5824 5821 5818 5815 5811 5808 5804 5801 5797 5792 5787 5781 5777 5772 5769 5763
5888 5887 5884 5882 5880 5877 5874 5871 5869 5866 5863 5860 5858 5856 5853 5851 5848 5845 5842 5839 5837 5834 5831 5829 5826 5823 5821 5818 5815 5812 5810 5806 5803 5800 5795 5791 5787 5783 5778 5770 5764 5758 5754
5886 5884 5882 5878 5876 5873 5870 5867 5864 5861 5857 5854 5852 5848 5846 5843 5840 5837 5835 5832 5829 5827 5824 5821 5819 5816 5814 5811 5808 5805 5802 5800 5797 5794 5790 5787 5782 5777 5773 5768 5762 5753 5748
5884 5882 5879 5876 5874 5870 5866 5862 5859 5857 5853 5850 5847 5843 5840 5837 5834 5830 5828 5825 5822 5819 5815 5813 5811 5809 5806 5803 5801 5798 5795 5792 5789 5786 5783 5779 5775 5771 5766 5762 5756 5750 5743
5882 5879 5876 5872 5869 5867 5863 5859 5855 5851 5848 5845 5842 5839 5835 5832 5828 5824 5821 5817 5814 5811 5808 5806 5804 5800 5798 5796 5793 5790 5787 5784 5781 5778 5775 5771 5767 5762 5758 5754 5749 5743 5735
5880 5876 5872 5868 5865 5863 5859 5855 5851 5847 5843 5840 5837 5833 5830 5826 5822 5817 5814 5810 5807 5804 5801 5798 5795 5792 5789 5786 5784 5781 5778 5775 5772 5769 5765 5762 5758 5753 5749 5745 5741 5736 5726
5877 5873 5869 5865 5862 5858 5854 5849 5846 5842 5838 5834 5831 5827 5824 5820 5816 5812 5808 5804 5800 5797 5794 5790 5787 5783 5780 5777 5774 5772 5769 5766 5763 5760 5756 5753 5749 5744 5740 5735 5731 5727 5720
5874 5870 5866 5862 5858 5853 5849 5844 5841 5836 5832 5828 5824 5821 5818 5813 5810 5806 5802 5797 5794 5790 5786 5783 5779 5776 5772 5769 5767 5764 5760 5758 5754 5751 5747 5744 5741 5736 5731 5727 5722 5717 5711
5869 5865 5861 5858 5854 5849 5844 5839 5835 5830 5826 5822 5818 5814 5811 5807 5803 5800 5795 5792 5787 5783 5779 5775 5772 5768 5764 5760 5758 5755 5752 5749 5746 5743 5740 5735 5731 5727 5721 5718 5713 5709 5702
5863 5860 5856 5851 5848 5844 5839 5834 5828 5824 5819 5815 5811 5808 5804 5801 5796 5793 5789 5784 5782 5775 5770 5767 5763 5760 5757 5753 5750 5747 5744 5740 5736 5732 5729 5726 5722 5717 5712 5708 5704 5700 5694
5859 5854 5850 5845 5840 5837 5832 5827 5823 5818 5813 5808 5804 5800 5796 5792 5788 5784 5780 5776 5773 5769 5766 5761 5757 5753 5749 5745 5741 5737 5734 5731 5727 5723 5720 5717 5713 5708 5703 5700 5696 5692 5685
5852 5847 5843 5839 5834 5829 5825 5820 5816 5811 5806 5801 5797 5793 5788 5784 5780 5777 5773 5768 5765 5762 5758 5754 5750 5745 5742 5737 5733 5729 5726 5721 5718 5714 5710 5707 5704 5700 5695 5691 5687 5683 5678
5846 5842 5837 5832 5827 5823 5818 5813 5809 5804 5799 5793 5789 5785 5781 5777 5773 5769 5764 5761 5757 5753 5750 5746 5742 5737 5734 5729 5725 5721 5717 5714 5710 5705 5701 5697 5694 5690 5687 5683 5679 5675 5670
5839 5835 5830 5826 5820 5815 5810 5806 5801 5796 5791 5785 5781 5777 5773 5769 5766 5761 5756 5752 5748 5744 5740 5737 5733 5730 5726 5721 5715 5712 5709 5706 5701 5697 5693 5689 5685 5681 5679 5676 5671 5667 5663
5831 5828 5823 5818 5812 5807 5801 5797 5792 5787 5782 5778 5773 5769 5765 5761 5757 5752 5748 5744 5739 5736 5731 5727 5723 5719 5716 5712 5706 5701 5698 5695 5692 5688 5684 5680 5676 5673 5670 5669 5665 5660 5655
5824 5819 5814 5809 5803 5797 5792 5787 5782 5777 5773 5769 5765 5760 5756 5752 5748 5744 5740 5736 5732 5727 5722 5717 5712 5708 5705 5701 5697 5692 5690 5686 5683 5678 5675 5673 5669 5665 5662 5659 5657 5653 5648
5815 5809 5803 5798 5793 5787 5781 5777 5772 5768 5763 5759 5755 5751 5747 5742 5738 5734 5729 5726 5722 5718 5714 5710 5705 5700 5695 5690 5685 5680 5678 5677 5674 5670 5666 5662 5660 5656 5654 5652 5647 5645 5642
5803 5797 5792 5788 5782 5776 5772 5767 5762 5758 5753 5749 5745 5741 5736 5733 5728 5723 5719 5714 5710 5707 5702 5697 5693 5689 5685 5679 5675 5669 5665 5665 5662 5659 5656 5651 5649 5646 5646 5644 5639 5635 5634
5789 5785 5780 5776 5772 5766 5762 5756 5752 5748 5742 5739 5734 5730 5726 5722 5716 5712 5708 5703 5699 5694 5689 5684 5681 5676 5671 5665 5660 5656 5653 5649 5648 5648 5646 5641 5638 5636 5636 5634 5631 5628 5625
5777 5772 5768 5764 5759 5755 5751 5746 5743 5737 5732 5728 5724 5719 5714 5709 5705 5700 5694 5689 5685 5680 5675 5671 5666 5660 5656 5651 5646 5640 5637 5635 5633 5631 5631 5630 5628 5625 5624 5624 5621 5620 5617
5765 5760 5755 5752 5746 5742 5738 5735 5731 5726 5720 5716 5711 5706 5701 5696 5691 5686 5681 5675 5669 5664 5659 5655 5651 5646 5640 5635 5629 5625 5621 5619 5616 5615 5614 5615 5614 5614 5613 5612 5610 5611 5609
5750 5746 5742 5738 5734 5729 5725 5723 5718 5712 5707 5703 5697 5691 5686 5681 5676 5671 5665 5659 5653 5647 5642 5636 5631 5629 5625 5619 5613 5609 5604 5603 5602 5599 5598 5600 5601 5601 5599 5600 5599 5600 5600
5737 5733 5728 5723 5720 5716 5712 5708 5704 5696 5691 5687 5681 5675 5670 5666 5660 5655 5650 5643 5637 5631 5625 5617 5613 5608 5606 5600 5597 5592 5589 5586 5585 5583 5583 5584 5589 5588 5586 5585 5587 5589 5590
5723 5719 5713 5708 5704 5701 5697 5691 5685 5679 5674 5669 5664 5658 5652 5648 5643 5637 5633 5625 5618 5610 5603 5600 5597 5592 5586 5583 5578 5575 5572 5570 5568 5568 5567 5568 5573 5575 5573 5571 5573 5576 5579